Wind_Speed
14 14 13 12 11 10 9 8 8 8 9 9 8 9 9 9 8 8 8 9 8 8 9 9 9 10 11 11 11 12 12 14 13 15 17 9 7 11 12 11 9 8 11 13 12 13 16 17 18 17 16 16 16 17 17 17 17 14 8 8 9 8 10 10 12 9 5 6 4 8 6 3 7 2 4 5 8 11 5 19 21 20 14 11 15 21 24 24
13 14 14 14 13 11 10 9 9 9 9 9 9 9 9 9 9 8 9 9 8 8 9 9 10 10 11 12 11 12 13 14 15 19 17 7 8 12 11 10 10 10 12 15 16 16 18 18 18 18 17 16 15 16 16 16 18 13 6 8 9 9 13 13 14 8 5 6 7 6 1 4 4 3 3 3 7 12 8 17 19 18 15 13 17 21 22 23
13 13 14 14 14 13 11 10 10 9 9 9 9 10 10 9 9 9 9 9 8 8 8 9 10 11 12 12 13 14 14 15 17 19 13 8 11 11 9 9 10 11 13 15 16 16 17 17 16 17 18 16 15 17 16 15 15 13 10 8 9 12 15 18 18 9 5 7 7 3 2 5 2 1 2 1 6 11 7 13 14 13 12 11 14 17 19 22
12 12 13 13 13 14 13 11 10 10 10 10 10 10 10 10 10 10 10 10 9 8 9 9 10 11 12 13 14 14 14 15 11 7 4 5 8 6 8 8 10 12 12 14 14 14 16 16 15 17 17 14 16 17 15 16 14 12 12 9 11 15 14 20 17 10 8 5 7 4 2 5 2 1 4 2 5 3 5 12 13 12 13 13 14 16 16 21
12 12 12 12 13 13 13 13 11 11 11 10 10 10 11 11 11 11 10 11 10 9 9 10 10 11 12 13 15 14 11 8 1 3 2 1 4 4 6 7 10 11 13 15 13 14 16 17 16 17 16 12 14 15 14 19 16 10 13 15 17 18 14 17 12 7 9 4 5 6 5 9 2 1 8 7 6 5 9 12 14 13 15 15 17 17 15 19
12 12 12 12 12 13 13 13 13 12 11 11 11 11 11 11 12 11 11 11 10 10 9 11 11 11 12 13 15 14 6 3 1 4 5 1 4 3 4 7 10 13 15 15 13 15 16 18 17 17 14 11 13 13 14 20 19 10 11 16 20 22 18 18 13 4 4 5 6 9 13 12 5 5 8 10 6 11 14 14 15 13 14 15 17 16 15 18
12 12 12 12 12 12 12 12 13 13 12 12 12 11 11 11 11 12 12 12 11 11 10 11 12 11 13 13 15 11 10 13 9 6 5 3 4 2 3 6 10 16 18 15 14 14 16 19 18 17 13 10 13 14 16 19 19 14 12 14 19 23 20 20 17 3 1 7 11 12 14 8 4 8 5 8 3 16 18 15 16 15 13 12 15 15 16 19
12 12 12 12 12 12 12 12 12 13 12 12 12 11 11 11 11 11 12 12 12 12 11 10 11 12 13 13 12 10 15 16 7 6 4 4 5 4 3 6 10 18 18 14 15 14 15 18 18 17 12 11 13 14 17 17 16 15 14 15 17 20 20 20 19 11 6 8 10 12 12 6 6 12 8 7 4 14 17 19 19 20 18 15 17 18 17 18
12 12 12 12 12 12 12 13 12 13 13 13 12 12 12 11 11 11 11 12 12 12 11 11 11 12 13 13 12 11 12 8 6 7 8 8 7 6 5 5 10 17 16 13 15 14 14 16 17 17 13 13 15 15 17 15 11 13 16 17 17 20 20 17 14 14 12 10 11 10 11 10 10 14 10 8 6 11 14 20 23 23 22 19 19 18 16 17
13 13 13 13 13 13 13 13 13 13 13 13 13 12 12 12 12 11 11 11 12 12 12 11 11 12 11 11 11 9 6 3 5 7 8 10 10 9 7 6 9 14 15 12 14 15 15 14 14 16 15 15 16 14 16 14 10 14 19 19 19 20 21 18 13 13 14 14 15 11 11 12 13 14 7 11 14 11 11 20 27 24 23 19 17 16 15 16
13 13 13 13 13 13 13 13 13 13 13 13 13 13 12 12 12 12 11 11 11 11 11 11 11 12 10 9 12 12 5 3 3 4 7 9 12 11 8 10 10 12 14 13 13 14 15 15 13 13 12 12 15 14 15 17 16 19 20 14 14 18 20 22 17 13 14 14 17 14 13 13 14 14 9 14 17 12 11 18 26 24 24 19 14 16 15 16
13 14 14 14 14 14 14 14 14 14 14 14 13 13 13 12 12 12 12 11 10 10 10 10 11 12 11 11 19 17 7 7 7 5 8 9 12 11 8 12 13 13 14 13 13 13 13 14 13 14 12 9 10 10 12 16 18 20 18 11 12 15 16 21 18 15 14 11 15 15 12 12 11 14 14 19 20 15 14 16 18 18 21 21 16 16 15 17
14 14 14 14 14 14 14 14 14 14 14 14 14 14 13 13 12 12 11 10 10 10 9 9 10 11 9 13 22 17 10 12 11 8 9 11 12 12 11 13 14 12 14 14 13 11 12 13 14 16 17 12 9 9 7 11 16 16 14 10 11 12 11 18 19 18 16 12 14 12 8 10 11 16 18 21 21 16 16 15 15 14 16 22 21 19 18 20
14 14 14 14 14 15 15 14 14 15 14 15 15 14 14 13 13 12 11 11 11 11 11 10 11 9 8 16 20 13 11 12 12 11 11 12 13 14 13 13 13 13 13 14 13 10 10 13 15 16 18 16 14 14 10 9 11 11 11 9 9 9 9 14 17 17 15 13 17 13 6 9 11 17 21 22 17 14 14 15 15 14 14 20 22 20 19 21
14 15 15 15 15 15 15 15 15 15 14 15 15 15 15 14 14 13 12 12 12 12 12 10 9 7 10 20 20 10 14 14 15 15 13 14 15 15 15 13 13 13 12 13 12 11 9 11 14 14 15 16 16 14 9 8 8 7 9 9 9 9 10 14 16 19 17 15 20 16 8 8 11 15 23 25 20 19 17 15 15 16 15 18 17 16 18 18
15 15 15 15 15 15 15 15 15 15 14 15 16 15 15 15 15 14 14 14 14 13 12 8 6 7 9 13 11 8 14 18 18 17 15 16 16 15 15 14 13 13 13 12 12 12 11 11 13 15 15 13 12 9 7 8 8 8 8 8 10 11 10 11 15 19 21 16 18 17 10 7 10 14 20 26 25 23 21 17 18 19 16 20 17 13 15 15
16 16 16 16 16 16 16 16 15 15 14 15 16 15 16 17 16 16 16 15 15 13 11 6 3 8 12 10 9 10 15 18 16 15 18 17 17 16 14 14 13 13 13 12 12 12 12 13 12 11 13 11 8 8 8 8 7 7 8 8 11 13 11 10 13 16 21 17 16 17 12 9 12 13 18 24 30 24 19 19 20 19 16 21 22 16 15 15
16 16 16 16 16 16 16 16 16 15 14 15 16 15 16 17 19 20 19 17 13 10 9 8 5 6 12 13 14 13 11 14 13 13 17 17 18 17 13 12 12 12 13 11 13 14 12 13 11 8 9 9 8 9 8 9 10 9 9 8 9 13 14 12 13 13 21 19 16 15 14 13 15 14 15 10 25 24 19 20 19 20 16 18 23 17 16 17
17 17 17 17 16 16 17 16 16 15 15 14 14 15 16 17 18 16 11 9 8 5 6 9 13 7 8 9 13 11 4 6 9 11 16 18 17 15 12 12 12 13 13 9 11 15 12 9 9 8 7 9 10 11 11 13 16 12 8 9 10 11 12 14 14 12 20 18 15 14 14 14 15 16 9 6 16 16 17 17 17 17 17 17 20 16 17 18
17 17 17 17 16 16 17 17 17 16 15 14 14 13 12 12 10 4 1 8 14 13 13 12 17 17 17 13 12 10 6 6 8 12 16 17 16 15 14 14 14 14 12 9 9 13 12 8 8 9 10 12 13 14 15 17 18 14 13 14 13 11 11 14 14 11 17 13 13 14 14 14 13 15 13 13 16 13 11 12 15 15 17 18 18 17 19 19
17 17 17 17 17 17 17 17 17 16 15 14 13 11 10 10 8 6 6 11 18 21 24 23 20 22 22 19 15 9 9 10 11 13 15 17 16 14 14 15 13 10 11 13 10 10 11 9 9 12 13 14 14 14 14 17 17 13 12 15 11 10 11 13 14 12 14 9 10 13 13 13 13 14 13 14 17 14 12 12 14 15 17 18 18 17 19 19
17 17 17 17 17 17 17 17 17 17 16 14 13 12 12 11 9 11 14 15 20 23 25 26 26 26 24 23 19 12 10 11 12 14 16 18 17 14 14 15 12 9 11 13 10 8 9 9 12 15 13 13 14 11 12 15 14 10 9 11 9 6 10 10 10 9 10 5 7 11 11 11 12 14 12 12 13 14 15 15 15 17 17 17 17 16 18 19
18 17 17 17 17 17 17 17 16 16 14 13 14 14 12 11 12 14 15 14 19 24 24 24 26 27 25 23 19 16 15 13 12 16 19 19 19 18 14 12 12 11 11 12 11 8 7 10 15 15 13 14 12 6 6 8 7 8 8 8 8 8 10 5 4 5 9 5 6 7 8 8 12 12 10 14 13 15 16 16 17 18 17 17 17 16 17 18
19 19 18 18 18 17 18 17 13 12 12 10 10 10 9 11 13 13 14 13 14 20 24 23 24 25 24 22 18 19 19 17 15 17 21 21 19 18 14 12 12 11 11 14 15 12 10 12 14 15 16 15 10 5 6 6 5 9 10 10 9 10 12 7 6 6 7 7 6 6 8 7 11 11 9 13 11 13 14 16 16 19 18 17 17 16 15 16
20 20 19 19 18 17 17 15 9 8 11 11 11 11 9 9 10 9 11 10 9 14 18 18 20 21 20 18 17 19 18 17 19 18 22 24 20 16 13 13 12 10 13 16 15 13 12 9 7 13 15 10 8 8 10 9 6 9 11 13 15 15 16 10 6 7 4 5 7 7 9 7 8 11 11 10 8 10 13 14 15 18 18 16 14 14 14 12
20 20 19 19 18 17 15 11 6 7 12 12 10 8 6 5 7 8 7 6 6 9 8 10 13 13 14 16 17 16 13 14 20 20 21 24 22 16 12 11 10 10 13 14 10 7 9 8 5 9 8 7 9 9 10 11 7 8 10 13 17 19 18 14 7 6 5 5 6 9 9 5 7 13 14 11 10 13 14 11 14 17 14 13 12 13 11 11
20 20 19 18 17 17 15 11 9 11 13 8 4 4 5 5 7 8 5 5 5 6 7 8 8 7 10 14 16 14 8 10 17 21 21 23 21 19 14 10 9 10 11 8 7 6 8 10 8 9 8 7 9 8 10 12 9 8 10 13 17 18 17 15 13 8 5 5 6 9 10 6 7 11 12 13 13 13 13 11 12 11 9 13 10 8 7 15
20 20 20 17 16 16 16 15 13 14 14 9 8 6 7 7 8 6 4 4 3 2 7 7 5 5 7 12 17 16 11 9 13 18 22 22 20 19 14 12 10 10 11 9 6 7 8 10 9 9 10 8 9 10 11 13 10 10 13 13 13 14 15 14 10 7 5 5 6 8 9 7 6 6 9 13 14 13 12 12 11 7 14 13 11 5 15 13
19 20 20 18 15 13 14 15 15 13 13 11 10 9 8 9 7 4 4 4 4 2 4 6 6 7 9 12 17 20 17 10 9 15 22 21 19 18 13 13 14 11 13 11 8 6 8 11 12 10 8 8 10 12 13 13 11 11 14 13 10 10 12 11 8 7 6 5 6 8 7 6 6 5 7 10 12 12 10 11 11 10 15 13 11 19 22 13
19 19 20 19 15 10 11 14 12 8 8 9 10 10 9 7 5 5 6 4 3 4 6 7 7 10 13 12 13 18 17 12 9 16 21 19 20 20 15 15 14 11 10 11 11 11 5 6 10 9 9 10 11 12 13 14 13 12 11 10 9 9 9 9 8 6 6 5 8 11 10 8 8 5 6 8 9 10 9 9 8 11 16 15 16 25 21 14
17 18 19 20 17 10 11 12 6 5 6 7 10 10 6 5 5 6 7 4 5 6 8 8 8 11 14 13 11 14 16 13 10 15 15 14 16 17 13 12 10 7 8 8 10 14 10 5 5 6 10 13 12 9 9 10 12 10 7 7 8 7 6 7 6 5 6 5 8 13 13 10 8 4 5 5 5 7 7 8 8 8 14 15 18 23 19 15
16 17 18 18 17 13 12 9 3 2 4 7 8 7 5 6 6 6 6 5 4 4 7 8 10 11 13 15 12 13 15 12 11 13 13 11 11 12 11 9 7 6 7 7 8 11 11 9 7 8 12 15 11 6 6 6 8 9 7 7 7 5 5 6 6 6 6 7 9 11 10 7 4 1 2 2 2 2 3 8 11 11 13 14 18 21 18 17
15 17 17 17 17 14 11 10 9 10 11 8 7 6 6 6 7 8 8 7 3 1 1 5 7 9 11 12 11 12 14 12 11 12 13 13 10 11 14 13 11 9 7 7 8 8 8 9 11 10 10 13 11 7 7 7 8 9 7 7 7 5 5 6 6 6 6 7 10 8 4 3 1 4 5 7 8 9 11 7 12 15 13 13 16 19 16 16
15 16 16 14 13 11 8 7 8 10 10 9 7 6 8 8 7 8 9 11 9 6 5 4 4 9 10 10 10 11 11 11 13 13 12 13 10 10 13 15 16 12 7 6 6 7 8 8 10 11 8 11 13 11 9 6 8 10 8 8 7 5 4 5 5 5 4 4 7 8 4 1 2 4 7 10 9 10 12 11 9 10 10 12 14 17 16 15
14 14 14 11 7 5 3 3 4 5 6 7 7 7 9 8 7 8 9 10 11 12 12 8 6 8 9 10 11 10 10 10 13 14 12 11 11 9 10 13 16 14 8 6 5 6 10 8 9 13 11 12 14 14 13 10 6 7 9 9 6 5 4 3 3 2 1 3 5 5 3 3 4 4 7 9 8 8 9 8 10 12 10 10 14 17 16 14
12 10 11 8 4 3 2 1 3 4 6 8 7 7 8 7 7 8 8 9 10 12 13 11 9 9 8 8 9 10 12 11 10 11 11 12 13 13 12 11 13 15 11 7 5 4 8 8 6 13 15 13 14 13 12 11 4 1 6 9 7 7 6 2 2 2 2 3 3 3 3 4 4 5 7 9 9 8 7 8 11 12 12 12 12 14 12 12
12 7 9 8 4 3 3 4 5 4 7 8 8 8 8 9 11 11 10 12 14 13 11 9 8 8 9 8 8 11 12 10 8 7 7 10 10 11 13 13 14 17 15 10 6 4 6 6 4 6 13 14 14 13 13 13 8 3 3 4 5 5 5 2 2 3 3 5 5 5 5 4 5 5 8 10 10 10 8 11 12 9 7 8 8 9 9 12
12 7 9 7 4 5 4 5 7 7 8 8 8 10 9 10 14 15 15 16 16 14 11 8 6 8 9 9 8 9 9 7 7 7 5 5 4 4 7 10 11 15 18 15 7 3 6 5 5 10 13 13 12 11 11 12 13 9 3 2 3 3 3 2 2 3 4 5 4 6 9 6 2 2 8 9 10 11 9 9 9 6 4 3 4 8 11 15
9 6 6 5 6 5 6 7 9 10 9 7 8 8 9 12 16 20 20 18 16 13 10 9 8 8 9 10 9 8 9 7 5 6 6 3 1 6 8 5 4 9 15 17 8 3 3 3 4 9 10 9 10 7 7 8 11 10 5 3 4 3 2 2 2 3 5 5 4 7 7 2 4 1 9 11 11 11 9 9 8 1 2 1 3 8 12 14
7 6 3 4 6 8 7 8 11 10 8 8 9 8 9 12 16 22 25 21 15 11 9 9 10 10 10 11 11 8 8 7 4 3 5 2 1 4 7 6 5 11 12 13 12 6 4 2 2 5 8 7 6 6 7 7 7 8 6 6 6 4 4 4 3 4 5 5 3 4 3 3 5 3 9 14 10 9 10 10 10 6 4 3 5 8 11 12
10 8 2 3 5 5 2 7 9 8 7 7 10 10 12 12 13 17 22 22 16 12 10 10 11 11 10 11 11 8 6 5 4 2 2 1 3 3 4 7 4 6 12 10 9 4 2 4 3 5 6 6 6 6 9 10 9 8 7 7 7 6 5 4 4 5 5 4 2 1 1 3 4 3 9 12 9 8 10 12 14 13 12 12 12 12 13 14
10 5 1 4 3 3 3 5 6 8 7 8 10 12 13 13 13 15 17 18 15 12 10 10 13 11 9 10 9 7 7 5 7 4 1 2 4 5 4 10 10 6 5 6 3 1 1 2 5 6 5 6 9 9 8 10 12 12 9 7 7 7 5 4 4 4 4 3 2 1 3 3 4 4 8 10 9 10 11 13 16 16 16 18 19 21 22 20
7 2 2 4 2 3 6 6 6 7 7 9 13 16 16 13 11 14 14 11 8 8 8 10 13 13 9 8 8 8 9 5 4 5 2 4 5 4 2 7 13 7 3 3 5 2 3 2 5 3 2 6 10 11 14 14 11 10 8 7 7 7 7 7 4 2 3 3 2 2 3 3 3 3 7 10 13 13 13 14 15 15 17 17 18 21 22 19
10 5 2 4 1 4 6 5 5 6 6 9 11 14 17 16 12 12 11 7 6 7 8 9 12 13 9 7 8 9 8 5 2 4 4 4 5 4 4 3 6 9 4 4 2 2 2 3 4 2 1 4 6 6 8 10 9 6 7 8 10 10 7 4 2 2 2 4 5 3 1 3 2 3 7 9 12 12 11 13 14 14 16 17 15 17 19 18
12 6 1 1 2 6 5 3 4 7 8 10 10 10 13 14 12 12 10 8 9 10 8 9 13 14 10 9 11 13 9 7 6 2 5 3 4 8 9 6 2 7 7 3 7 5 1 2 2 4 4 3 4 3 2 4 6 7 12 13 13 14 9 0 3 1 3 5 6 2 4 3 3 8 11 8 8 8 7 7 11 11 13 15 15 16 17 18
9 3 4 5 5 6 7 6 5 6 6 9 7 6 9 10 9 10 11 8 8 10 9 8 11 12 10 10 11 11 10 10 9 3 5 3 0 3 8 9 9 7 1 5 4 4 1 1 3 4 4 2 2 1 1 3 5 8 16 18 14 14 12 3 2 2 2 0 2 1 7 8 5 9 12 7 7 8 5 6 5 7 12 14 14 16 17 17
7 3 5 5 3 5 7 8 8 6 7 9 5 1 6 10 8 5 5 6 6 8 8 7 8 8 7 9 8 7 9 11 11 8 7 8 3 3 8 12 11 8 7 4 7 5 2 3 5 5 6 6 5 2 2 1 6 10 15 16 16 16 12 5 3 2 2 2 1 2 7 10 7 8 10 9 8 9 6 3 2 4 12 15 15 17 18 18
4 5 7 6 4 5 6 8 11 9 7 7 4 3 5 7 6 1 1 5 6 4 5 6 7 9 8 8 8 6 8 10 10 7 2 6 5 4 6 8 8 8 5 7 6 3 4 4 5 5 7 5 5 3 1 2 5 7 11 14 14 16 16 12 9 8 4 3 4 7 9 11 9 8 11 10 8 8 10 11 7 4 8 12 15 17 17 17
7 5 7 7 5 7 8 9 12 9 8 9 5 5 1 5 5 5 1 1 4 3 5 6 7 10 11 10 8 5 3 4 5 5 6 4 1 2 1 2 5 5 6 6 3 1 2 2 2 5 6 4 2 0 3 2 4 2 6 11 13 14 15 15 14 14 6 6 12 13 13 12 9 9 11 11 11 12 12 12 11 7 7 10 15 17 17 19
10 5 4 5 5 9 10 11 10 7 7 9 6 7 7 7 2 4 6 5 2 4 6 6 6 8 6 7 6 4 5 5 4 5 5 4 2 1 2 2 1 3 5 4 2 3 2 1 2 3 5 5 4 3 1 2 2 2 1 5 9 11 11 12 11 12 6 9 16 15 14 11 7 10 13 15 18 17 15 16 16 13 10 12 16 19 19 20
8 5 6 7 4 7 9 9 8 6 6 7 7 10 10 8 7 7 8 9 7 6 8 8 7 7 7 10 11 9 9 9 6 5 6 6 3 3 3 3 1 3 2 2 4 3 2 2 2 3 5 4 5 6 4 1 1 2 4 2 2 6 8 9 9 8 5 5 12 12 10 7 7 11 15 17 20 20 19 20 23 24 25 23 23 24 25 24
10 8 10 10 4 6 6 7 7 5 4 6 8 10 9 10 11 8 5 8 12 12 12 11 8 4 5 9 11 12 11 11 9 8 9 8 6 6 4 3 5 4 2 4 3 3 2 1 4 5 5 4 5 5 4 2 2 4 4 4 4 3 6 8 10 11 9 3 2 5 7 8 10 12 13 13 16 18 19 19 20 23 28 28 26 27 28 29
Wind_Direction
13 11 7 1 352 344 336 328 315 302 293 293 299 303 307 307 313 324 332 339 347 353 350 351 353 348 339 329 315 304 299 289 285 273 269 276 258 248 248 246 243 228 219 215 191 190 201 204 214 215 220 226 227 233 233 230 227 230 230 237 249 247 250 248 251 263 288 273 93 59 27 302 280 130 160 227 231 241 101 78 76 73 69 87 119 145 148 147
10 10 10 6 0 352 342 334 326 316 304 298 293 295 299 302 304 311 320 326 337 348 348 351 354 352 347 339 327 316 304 296 291 273 265 264 250 253 250 239 233 223 218 205 186 194 202 203 211 211 216 224 224 224 231 228 221 229 233 233 240 244 252 249 255 276 4 4 44 52 358 235 278 30 114 198 240 225 150 87 84 84 79 89 114 131 140 147
3 5 6 6 5 360 350 339 333 327 320 311 298 291 290 294 297 301 307 313 323 335 341 345 348 349 347 343 336 323 314 311 297 279 274 254 238 241 238 234 224 217 217 201 189 201 207 207 210 209 215 223 225 219 222 223 217 223 232 240 238 241 255 258 267 293 358 8 1 17 142 224 229 196 226 200 250 228 167 104 101 102 106 121 126 134 146 153
356 358 359 1 2 2 358 347 337 330 328 321 311 299 289 288 290 293 297 302 311 320 332 335 338 343 344 343 336 331 327 318 293 267 293 243 222 220 220 224 215 209 207 191 193 212 215 216 212 211 218 225 228 224 222 223 217 215 224 242 245 244 250 253 268 299 284 283 294 322 72 254 238 253 287 218 218 224 108 118 130 132 135 151 149 149 158 161
350 351 352 353 355 357 358 354 346 335 329 325 321 311 297 288 282 286 290 294 300 308 321 322 328 336 338 341 334 334 332 321 173 162 323 240 182 203 215 213 206 198 186 179 202 228 221 221 218 215 222 231 233 227 225 225 222 221 228 237 246 253 255 255 277 319 291 292 263 269 273 278 344 281 270 255 235 137 121 126 131 144 147 156 157 158 163 166
344 346 345 346 347 348 351 352 350 342 333 328 325 320 310 296 286 283 284 288 291 298 309 311 319 327 332 337 331 331 308 278 33 223 254 218 165 191 202 198 196 185 175 180 216 235 222 222 221 218 221 231 239 234 229 224 222 232 239 238 243 252 259 271 291 325 286 297 277 261 260 277 325 272 257 274 276 121 131 127 126 144 149 151 154 164 170 173
338 340 339 339 339 341 343 343 346 345 340 332 328 327 320 310 298 288 283 284 284 288 297 303 310 316 324 329 326 317 258 269 293 237 222 214 180 173 177 185 187 176 174 193 226 232 221 222 223 224 223 227 240 241 239 230 225 232 242 242 244 249 253 264 275 291 158 251 261 264 262 270 289 265 237 255 247 113 128 137 138 143 146 154 154 168 173 176
333 334 333 334 333 333 335 335 338 339 341 337 332 329 325 319 309 298 290 284 282 283 286 294 304 309 316 324 324 299 261 263 252 193 230 254 207 197 185 175 182 179 182 206 228 230 221 224 227 229 229 230 238 243 246 241 229 232 242 246 250 253 251 251 252 248 231 235 250 256 262 262 250 258 249 241 188 128 148 149 145 145 149 162 165 177 174 179
329 329 328 329 328 328 329 329 330 331 335 337 335 331 326 323 315 307 296 286 282 280 282 289 295 302 310 319 319 292 271 254 215 218 248 252 230 215 200 179 183 183 193 216 228 228 221 224 228 230 237 242 241 242 244 246 233 230 241 245 248 254 256 257 247 241 241 240 245 240 246 247 242 256 260 253 205 150 164 155 150 152 153 160 171 182 175 181
326 325 325 324 323 323 323 324 325 326 328 331 334 333 327 323 318 312 303 295 287 280 282 284 287 296 306 315 304 281 269 249 260 262 249 246 231 211 196 191 190 190 202 222 229 226 225 228 230 232 243 253 253 252 248 249 251 242 244 243 243 251 257 260 249 242 246 243 242 237 242 238 232 245 234 241 227 166 165 157 151 158 159 163 170 175 176 185
325 324 322 321 320 319 319 320 320 321 323 325 328 330 328 323 318 315 308 302 294 287 284 281 287 290 294 298 275 260 248 237 266 258 242 241 225 212 200 193 200 204 210 225 229 226 231 235 240 243 241 247 254 262 260 257 259 253 254 252 248 253 254 254 243 230 238 237 232 230 244 237 226 239 212 231 231 166 179 173 157 164 160 161 170 169 179 189
326 324 322 321 319 317 317 316 316 317 319 320 321 323 326 322 318 316 313 308 301 296 288 285 285 285 295 283 257 247 246 258 264 243 218 213 211 212 205 198 203 210 217 229 231 227 238 242 250 254 245 246 252 257 265 261 258 255 259 262 252 255 251 250 242 226 231 231 224 219 239 240 222 234 218 230 232 178 192 200 176 180 159 155 172 172 182 191
327 326 324 321 319 317 315 313 313 313 314 316 316 317 319 319 316 313 313 310 306 306 299 290 284 286 293 271 258 255 264 261 251 238 214 206 208 208 210 210 210 218 227 237 240 232 239 246 249 253 254 263 261 256 277 269 256 251 253 257 253 256 248 244 239 227 229 228 222 209 221 237 225 232 222 227 232 189 188 202 192 200 170 155 167 175 185 191
328 327 325 322 320 317 315 313 311 309 310 312 312 313 313 313 312 309 306 303 304 306 302 293 288 288 263 266 275 259 241 250 239 229 222 212 210 211 214 216 218 226 232 239 250 248 243 243 244 253 257 259 262 267 281 270 252 245 242 243 245 253 251 241 231 221 224 224 217 209 222 234 223 222 218 223 218 176 188 204 193 205 184 158 165 174 180 187
327 327 325 323 321 318 316 313 311 309 307 307 307 309 309 308 307 304 298 293 296 299 298 292 288 287 258 274 292 260 223 237 236 229 221 213 212 215 212 214 224 228 233 238 245 252 251 242 236 245 251 249 258 268 273 257 243 236 236 238 234 239 250 245 231 215 214 219 210 210 231 232 236 228 213 215 203 181 199 210 198 209 193 163 168 172 171 184
327 326 325 323 321 319 317 314 312 309 307 305 302 305 306 305 302 298 292 286 285 288 290 291 302 306 273 275 294 258 226 228 231 228 220 215 213 215 210 212 225 226 231 236 235 241 243 240 234 237 244 241 243 248 255 251 234 223 225 240 240 234 240 245 241 216 204 212 207 209 227 227 242 240 223 215 201 190 199 207 207 212 191 160 166 174 170 187
327 327 325 324 322 321 317 314 313 310 309 304 300 301 303 302 298 293 287 280 279 285 282 266 294 286 262 263 279 257 231 223 227 223 216 213 211 217 213 207 219 221 225 228 227 234 231 231 230 232 240 240 237 231 235 242 234 224 218 232 243 243 240 233 243 217 194 206 209 201 215 240 238 242 259 231 195 184 193 207 211 206 191 156 158 175 177 193
326 326 326 326 324 323 320 315 313 311 309 305 301 302 301 300 296 289 284 280 279 286 280 249 229 264 253 251 262 261 239 218 215 213 208 205 208 217 213 206 215 214 217 221 220 224 218 218 223 226 229 230 238 229 222 235 234 223 215 223 232 244 247 236 247 216 183 198 213 198 199 233 246 246 281 236 173 177 189 204 214 201 193 155 152 175 186 193
325 325 325 325 325 325 322 318 315 311 308 304 302 302 301 298 294 291 286 271 246 236 268 218 190 228 289 270 253 254 249 190 194 207 202 197 205 214 212 210 216 211 213 214 206 210 207 205 219 227 224 219 227 228 228 233 236 242 255 253 229 232 245 237 248 216 176 187 207 210 203 212 241 242 245 145 158 196 194 198 223 201 188 173 163 182 197 198
323 324 324 324 324 325 323 321 318 312 309 305 305 307 303 300 296 300 202 225 233 245 268 242 206 236 276 277 255 233 200 181 203 213 199 192 200 210 210 209 213 212 215 218 199 200 205 209 219 221 226 225 222 229 241 243 247 269 297 285 242 225 243 234 240 213 175 186 202 211 220 204 220 239 223 174 174 217 210 199 230 205 191 197 186 191 200 200
321 321 322 323 322 324 323 322 320 315 310 303 303 300 285 297 318 337 321 268 257 255 257 257 243 247 259 262 263 239 196 199 214 216 202 192 198 209 204 203 212 207 213 224 207 195 208 221 228 224 229 235 229 223 238 253 262 275 292 290 260 220 236 233 235 215 172 186 203 196 222 219 212 229 226 193 177 201 211 204 231 219 199 205 204 203 197 193
317 318 319 321 321 323 322 321 321 316 308 299 295 283 267 284 315 323 318 296 279 269 256 254 253 251 253 255 261 254 223 213 209 211 202 190 198 209 192 193 214 208 207 221 209 192 211 228 233 232 231 238 242 230 231 247 260 274 273 277 281 244 236 230 232 216 159 180 216 188 212 231 228 227 220 213 190 183 197 205 230 229 208 203 206 207 195 188
315 314 314 316 318 321 322 321 322 312 303 295 286 279 269 281 302 311 308 291 286 282 266 251 245 244 244 243 242 236 232 231 220 209 195 188 202 212 197 192 215 216 205 212 214 201 207 226 228 233 235 231 237 249 262 259 251 263 262 254 271 269 248 221 178 159 128 153 242 230 229 231 235 229 217 231 206 170 189 211 227 230 214 203 205 214 205 188
313 311 310 311 312 316 319 321 324 321 321 309 291 299 295 284 295 309 304 287 281 281 269 249 238 239 236 232 227 221 224 230 233 214 188 187 205 213 211 206 211 222 213 207 217 219 223 227 216 219 230 227 223 226 248 264 250 246 252 250 258 266 259 238 156 154 144 161 202 247 256 240 234 223 216 234 198 163 198 215 223 228 214 201 205 219 212 187
311 309 308 309 308 310 315 320 330 338 330 304 296 324 319 281 291 315 307 285 268 272 266 240 231 235 227 219 214 213 216 221 233 223 186 189 208 210 213 217 211 223 217 209 217 225 234 239 220 218 217 204 209 223 225 233 254 248 237 243 255 265 271 264 170 158 189 201 187 208 241 238 229 228 226 223 178 178 217 217 221 226 208 197 205 214 204 170
310 309 309 309 307 308 310 312 312 303 300 287 283 311 316 282 299 313 300 280 270 265 244 196 202 214 207 204 198 202 217 218 226 226 189 187 210 213 214 216 211 226 223 214 217 227 240 237 227 230 207 176 209 228 227 222 236 252 232 227 243 258 270 276 252 195 206 236 203 200 230 243 219 225 224 213 193 197 211 209 219 223 196 174 198 213 192 127
311 310 311 312 311 313 309 301 292 280 285 308 332 315 319 314 303 304 286 266 269 234 187 161 172 183 191 195 182 185 220 206 209 221 197 184 205 218 225 218 204 227 236 230 215 208 235 223 204 226 223 206 224 229 223 219 223 246 241 222 224 239 253 262 269 258 223 236 226 204 217 240 233 218 209 210 209 201 201 201 212 216 137 125 192 214 113 97
312 311 312 315 315 316 309 300 296 278 273 309 339 312 311 313 295 293 272 262 295 182 165 161 162 173 191 186 181 199 227 194 188 211 197 185 200 211 225 234 224 223 225 240 236 193 212 216 193 212 226 223 232 235 222 218 225 237 247 248 230 224 234 242 256 259 228 228 240 218 212 237 252 213 197 211 213 201 196 195 198 169 108 130 199 142 86 100
311 311 311 313 314 316 310 302 300 283 270 289 314 303 299 303 289 272 250 254 305 292 172 163 163 182 195 184 188 211 228 217 189 189 184 184 202 211 224 237 241 240 221 227 248 221 208 219 212 205 219 232 230 231 223 216 227 239 247 264 262 232 226 231 239 242 231 228 242 231 213 238 251 198 189 214 212 202 197 196 194 154 133 161 163 104 94 115
308 310 309 308 313 318 307 303 309 311 292 285 293 292 289 285 266 240 228 225 270 233 164 150 176 192 196 192 196 210 222 228 197 174 177 182 199 215 230 229 235 256 234 213 234 245 228 221 234 219 212 231 231 229 227 217 220 231 238 249 253 239 227 224 231 241 237 228 243 237 218 230 249 209 192 210 200 195 198 191 171 146 156 164 126 111 116 132
306 308 306 305 310 306 286 290 322 11 335 282 272 275 269 255 240 231 225 238 281 239 173 166 196 194 194 201 204 203 212 224 194 171 179 185 192 208 226 224 223 248 248 217 221 239 236 211 238 240 225 232 236 234 234 225 218 218 224 238 238 227 224 229 225 232 239 227 238 240 224 221 242 230 195 202 192 191 183 151 120 129 164 153 116 121 139 154
306 303 301 302 302 293 276 267 217 193 282 277 272 261 235 229 226 230 235 246 275 226 187 202 208 194 195 207 210 200 206 217 195 180 188 189 189 201 212 217 202 209 234 222 208 223 232 224 211 219 231 236 241 232 219 225 228 220 212 226 239 219 209 228 222 218 234 229 229 239 235 219 227 229 159 104 65 71 86 132 158 173 174 152 127 128 143 168
308 302 301 300 296 290 279 261 235 239 262 276 279 249 227 231 223 226 234 239 266 50 168 240 223 204 200 208 217 203 204 213 197 191 196 196 198 201 209 216 206 205 226 221 212 211 218 231 221 212 219 226 235 236 208 199 214 227 225 219 226 222 214 222 226 226 229 228 225 226 244 232 151 80 98 98 86 64 45 79 166 173 170 161 144 137 149 179
311 305 305 303 298 292 271 250 241 249 258 259 256 233 224 235 234 231 232 236 256 276 272 271 241 226 219 220 224 209 207 213 201 200 200 197 205 202 205 217 213 214 234 228 227 221 215 225 216 210 204 198 213 237 240 221 203 211 226 236 230 223 235 228 225 242 244 251 238 212 199 210 162 98 88 94 97 86 63 68 109 128 152 171 161 148 155 179
317 314 314 314 311 304 273 222 229 244 238 229 233 225 220 229 233 235 240 239 249 260 259 257 250 241 236 228 222 217 228 224 200 204 210 202 212 210 201 212 215 215 220 218 229 231 233 235 202 203 209 195 202 226 249 253 230 206 214 233 235 215 230 238 229 254 295 314 277 218 177 83 133 137 97 97 104 101 92 88 78 73 93 134 153 155 161 171
325 320 315 320 326 323 324 215 220 236 227 221 227 227 223 232 234 235 248 248 250 259 258 251 239 237 241 232 218 215 228 229 204 206 217 211 214 214 206 205 211 216 218 213 214 217 238 250 206 194 202 205 206 213 234 241 242 261 226 226 231 215 206 208 224 190 140 249 254 165 103 84 151 161 123 126 131 117 102 83 66 60 74 92 120 147 165 160
327 309 285 288 261 226 224 216 221 231 231 228 232 236 232 237 241 246 260 265 264 264 261 255 238 233 241 238 227 214 208 212 216 218 226 223 219 220 222 213 204 211 221 226 228 218 235 261 286 236 214 206 208 211 223 230 223 226 246 263 289 243 200 150 213 200 192 239 228 165 164 178 202 183 142 150 144 118 95 79 62 48 68 81 95 120 131 121
325 307 273 263 200 181 203 215 217 224 231 234 239 246 250 249 247 250 258 267 274 272 265 263 248 240 242 239 240 228 208 208 216 216 233 242 246 294 268 233 212 214 216 219 232 225 225 251 290 275 242 200 197 218 223 226 229 231 238 328 320 269 212 186 221 217 218 238 241 215 203 192 228 169 144 146 129 112 106 98 80 46 52 77 85 92 100 107
323 298 267 220 185 220 246 222 214 223 230 233 236 239 246 254 258 262 264 265 270 268 262 266 262 251 245 244 247 230 211 206 202 218 237 243 301 324 317 302 277 261 227 210 216 216 211 251 254 258 254 201 187 219 227 219 229 236 234 211 214 214 209 231 265 245 234 232 232 233 218 131 21 27 131 121 114 120 128 113 100 79 322 14 95 89 89 106
309 274 255 183 221 262 255 216 211 222 229 233 243 245 244 250 254 260 265 267 272 270 258 259 262 254 250 250 249 239 219 198 181 241 239 216 346 284 286 312 335 313 283 223 206 204 182 175 234 258 265 239 204 209 225 231 230 229 230 226 225 212 191 198 230 255 257 248 235 245 230 81 22 4 116 118 123 132 134 128 127 157 203 193 161 127 106 113
295 280 287 175 249 297 255 203 211 225 236 236 243 248 251 259 260 257 258 258 262 271 267 269 274 270 272 267 249 243 251 214 187 272 250 227 325 262 265 319 338 308 299 256 205 194 179 173 206 251 252 256 262 237 225 239 244 234 227 226 231 232 217 212 226 237 250 260 265 267 173 85 48 65 114 125 141 136 129 128 128 143 167 174 171 158 144 146
286 281 190 185 255 305 232 224 237 238 243 247 253 257 255 258 266 268 265 255 249 254 259 267 273 270 281 291 278 262 269 233 173 197 246 193 250 240 263 320 308 250 257 273 252 63 54 193 208 227 244 263 273 285 288 272 256 244 239 236 235 235 227 224 229 231 241 265 284 157 137 98 81 110 122 127 129 125 121 115 119 135 150 154 159 163 162 161
292 311 160 192 277 288 244 259 267 245 248 263 268 271 265 257 256 260 265 266 265 264 259 261 265 260 257 278 290 280 276 271 162 168 196 184 207 238 266 314 310 294 178 227 287 27 62 274 229 214 309 283 277 308 318 304 282 258 249 248 250 245 235 232 241 243 219 223 247 225 151 119 100 109 124 125 118 116 119 117 122 130 130 132 140 144 141 137
311 327 193 187 224 281 261 281 293 282 285 278 275 279 274 272 274 267 261 261 265 264 259 259 259 255 247 251 267 266 266 280 249 153 155 206 198 192 216 241 322 318 285 210 223 58 54 268 246 228 275 268 278 305 308 310 323 318 291 270 254 249 248 256 315 357 264 244 249 251 135 110 129 117 113 119 115 108 111 123 132 131 125 125 121 115 115 116
306 307 255 228 344 309 308 6 335 312 303 283 280 284 275 270 276 282 280 267 262 268 265 267 270 262 247 237 246 252 253 261 267 157 134 210 188 170 196 187 164 292 310 74 117 127 175 230 234 258 248 241 271 257 250 327 339 334 323 308 273 255 252 52 56 353 269 277 279 257 113 118 155 120 103 93 92 77 52 90 121 129 126 124 118 113 112 111
301 323 345 340 358 345 347 14 353 318 301 283 274 276 278 272 265 274 283 273 261 272 272 272 288 286 268 255 251 250 251 251 259 242 135 142 76 182 200 188 182 205 83 79 147 179 165 181 191 235 245 229 260 219 89 341 315 330 335 334 321 290 272 240 138 198 188 321 318 208 144 147 141 109 103 100 97 83 27 17 71 117 118 108 106 109 107 105
292 6 6 335 356 10 356 354 347 325 289 285 286 316 293 278 256 240 280 288 265 269 277 268 276 287 283 278 276 271 267 256 250 240 175 148 147 226 222 206 185 156 132 180 238 234 197 200 190 208 232 230 234 217 122 266 290 325 334 338 346 340 325 304 265 251 168 160 178 169 146 131 108 82 92 114 123 120 127 114 23 87 107 104 101 102 102 102
329 35 28 358 338 355 356 345 337 323 306 316 314 261 274 289 288 227 179 284 273 260 280 281 273 269 263 258 251 257 273 267 261 260 162 131 155 191 236 222 165 133 165 207 211 217 233 215 176 201 232 234 242 253 124 178 246 305 336 343 354 3 14 17 351 329 290 211 138 118 115 107 103 89 79 89 105 110 122 133 138 109 93 98 99 95 95 98
21 37 27 15 12 8 359 346 339 336 353 8 344 276 335 52 345 319 73 288 301 330 313 291 278 270 267 267 257 246 273 289 299 333 14 33 105 143 272 250 153 155 214 210 156 71 309 273 202 210 219 203 182 204 43 88 193 225 354 358 1 10 30 37 9 343 338 120 115 114 108 95 99 101 82 70 74 81 94 107 116 120 108 99 97 93 91 90
20 26 8 356 28 26 10 0 357 359 17 22 359 333 13 71 54 347 49 65 24 354 332 313 307 301 315 351 2 29 31 16 17 4 342 341 1 110 168 214 249 260 235 191 105 24 342 253 264 242 225 210 181 175 104 62 100 115 56 3 8 15 31 49 32 351 350 106 112 111 107 96 91 86 72 57 54 59 66 65 60 63 80 89 87 86 86 85
8 10 337 316 359 37 23 18 17 10 16 22 10 355 0 21 19 19 43 45 39 24 352 346 354 348 7 30 30 25 10 356 3 358 330 334 343 286 229 179 207 274 272 55 37 344 301 185 189 233 242 224 199 204 203 125 26 255 217 207 28 34 37 48 47 13 346 117 120 114 109 111 101 77 61 51 51 53 56 56 55 59 66 69 66 64 68 72
360 350 326 309 337 56 42 31 32 26 6 357 358 1 3 8 9 8 24 28 26 21 8 7 17 6 15 27 11 353 343 332 326 324 319 316 300 280 263 224 223 217 134 60 6 287 288 216 204 220 237 234 204 185 172 153 222 255 247 225 202 131 71 50 38 24 13 13 134 121 116 115 101 84 68 56 53 52 50 53 59 64 65 66 63 60 63 66
Height
1499 1498 1497 1496 1495 1494 1494 1493 1493 1492 1492 1491 1491 1490 1490 1489 1488 1488 1487 1487 1486 1485 1485 1484 1483 1482 1481 1480 1478 1477 1476 1475 1474 1473 1471 1469 1469 1469 1469 1470 1470 1471 1471 1472 1474 1476 1477 1478 1479 1480 1481 1480 1480 1478 1477 1476 1474 1474 1473 1476 1475 1469 1463 1453 1448 1441 1438 1437 1437 1441 1444 1448 1446 1443 1446 1449 1450 1449 1452 1457 1459 1463 1466 1469 1469 1471 1474 1476
1499 1498 1497 1496 1495 1494 1494 1493 1493 1492 1492 1491 1490 1490 1489 1489 1488 1487 1487 1487 1486 1485 1485 1484 1483 1482 1480 1479 1478 1476 1475 1473 1472 1469 1467 1467 1468 1468 1468 1469 1469 1470 1470 1471 1472 1475 1476 1477 1478 1479 1479 1478 1477 1476 1475 1473 1472 1471 1470 1472 1470 1464 1456 1446 1441 1435 1437 1442 1440 1443 1448 1449 1448 1445 1447 1450 1450 1449 1454 1460 1462 1466 1469 1472 1473 1474 1476 1478
1499 1498 1497 1496 1495 1494 1494 1493 1492 1492 1491 1491 1490 1489 1489 1488 1488 1487 1487 1486 1486 1485 1484 1484 1483 1482 1480 1479 1478 1476 1474 1472 1470 1466 1464 1466 1466 1466 1467 1468 1468 1469 1469 1471 1472 1474 1476 1476 1477 1478 1478 1476 1474 1473 1472 1470 1469 1468 1468 1469 1464 1458 1451 1443 1439 1435 1439 1445 1443 1445 1448 1448 1447 1447 1448 1450 1451 1448 1453 1461 1464 1467 1470 1474 1476 1477 1478 1479
1499 1498 1497 1496 1495 1494 1493 1493 1492 1491 1491 1490 1489 1489 1488 1487 1487 1486 1486 1486 1485 1485 1484 1483 1482 1481 1480 1479 1478 1475 1474 1472 1468 1464 1463 1464 1465 1466 1466 1467 1467 1468 1469 1470 1472 1475 1476 1476 1476 1476 1476 1474 1471 1470 1468 1467 1466 1464 1465 1466 1459 1453 1450 1444 1439 1439 1441 1445 1447 1448 1449 1449 1446 1448 1448 1448 1453 1453 1456 1462 1465 1467 1471 1474 1477 1478 1479 1480
1499 1497 1497 1496 1495 1494 1493 1492 1491 1491 1490 1490 1489 1488 1487 1487 1486 1486 1485 1485 1485 1484 1484 1483 1482 1481 1480 1479 1478 1475 1475 1472 1465 1463 1464 1464 1465 1465 1466 1466 1467 1467 1469 1470 1472 1474 1475 1474 1474 1474 1474 1471 1469 1468 1465 1463 1463 1461 1461 1459 1456 1451 1449 1443 1439 1442 1444 1446 1449 1450 1452 1450 1446 1450 1449 1447 1451 1456 1460 1463 1465 1469 1471 1474 1477 1479 1480 1481
1498 1497 1496 1495 1494 1494 1493 1492 1491 1490 1490 1489 1488 1487 1487 1486 1485 1485 1485 1484 1484 1484 1483 1483 1481 1481 1479 1479 1477 1475 1476 1470 1464 1464 1464 1464 1465 1465 1465 1466 1466 1467 1468 1470 1471 1473 1473 1473 1472 1471 1471 1469 1467 1464 1462 1460 1460 1461 1458 1455 1454 1452 1448 1444 1441 1444 1447 1450 1452 1452 1452 1449 1449 1451 1449 1447 1447 1452 1459 1463 1466 1469 1472 1475 1477 1479 1480 1481
1498 1497 1496 1495 1494 1493 1492 1492 1491 1490 1489 1488 1487 1487 1486 1485 1485 1484 1484 1483 1483 1483 1483 1482 1481 1480 1479 1479 1477 1475 1475 1467 1463 1465 1464 1465 1465 1465 1465 1465 1466 1467 1468 1469 1470 1471 1471 1471 1470 1468 1468 1468 1466 1462 1459 1457 1456 1458 1458 1453 1452 1450 1448 1447 1445 1446 1450 1454 1454 1453 1451 1449 1452 1452 1449 1449 1447 1452 1459 1462 1466 1469 1471 1474 1476 1478 1479 1481
1497 1497 1496 1495 1494 1493 1492 1491 1490 1490 1488 1488 1487 1486 1485 1484 1484 1483 1483 1482 1482 1482 1482 1481 1480 1480 1479 1478 1477 1475 1472 1465 1462 1464 1464 1465 1465 1465 1466 1465 1466 1466 1467 1468 1469 1470 1470 1469 1468 1467 1466 1465 1464 1461 1458 1456 1454 1455 1455 1452 1450 1448 1446 1446 1446 1447 1450 1453 1454 1453 1451 1450 1453 1452 1449 1448 1448 1453 1459 1462 1465 1469 1471 1473 1475 1477 1477 1480
1497 1496 1495 1494 1493 1492 1492 1491 1490 1489 1488 1487 1486 1485 1484 1484 1483 1482 1482 1481 1481 1481 1480 1480 1479 1479 1478 1477 1477 1475 1468 1463 1463 1463 1464 1464 1465 1465 1465 1465 1466 1466 1467 1468 1469 1469 1468 1467 1467 1466 1464 1462 1461 1459 1456 1456 1453 1451 1452 1450 1449 1448 1445 1444 1444 1446 1449 1451 1452 1453 1452 1452 1453 1453 1450 1448 1449 1453 1457 1460 1464 1467 1471 1472 1475 1476 1476 1478
1496 1495 1495 1494 1493 1492 1491 1490 1489 1488 1487 1486 1485 1484 1484 1483 1482 1482 1481 1480 1480 1480 1479 1479 1478 1478 1478 1477 1477 1473 1466 1463 1463 1462 1463 1463 1464 1465 1465 1466 1466 1466 1467 1468 1468 1467 1467 1466 1465 1465 1464 1461 1459 1457 1454 1454 1452 1448 1448 1447 1446 1446 1445 1444 1444 1446 1449 1450 1451 1452 1452 1451 1452 1453 1452 1450 1449 1452 1456 1459 1462 1465 1468 1470 1473 1475 1476 1478
1496 1495 1494 1493 1492 1491 1490 1489 1488 1487 1486 1485 1484 1484 1483 1482 1481 1481 1480 1479 1479 1478 1478 1478 1477 1477 1477 1477 1476 1469 1464 1464 1464 1462 1463 1462 1463 1464 1464 1465 1466 1466 1467 1467 1467 1466 1466 1465 1465 1464 1462 1460 1458 1456 1454 1452 1450 1448 1446 1445 1446 1446 1445 1444 1443 1446 1448 1449 1448 1450 1451 1449 1450 1452 1451 1449 1448 1451 1456 1458 1460 1463 1464 1468 1471 1473 1475 1477
1495 1494 1493 1492 1491 1490 1489 1488 1487 1486 1485 1484 1484 1482 1482 1481 1480 1480 1479 1478 1478 1477 1477 1477 1477 1476 1475 1475 1471 1464 1462 1464 1464 1463 1463 1462 1462 1463 1464 1465 1466 1466 1466 1466 1465 1465 1466 1465 1465 1463 1460 1459 1458 1457 1455 1451 1450 1448 1446 1447 1448 1446 1445 1443 1441 1444 1446 1446 1445 1448 1453 1451 1450 1449 1447 1447 1447 1449 1454 1455 1457 1460 1462 1467 1470 1472 1474 1476
1494 1493 1492 1491 1490 1489 1489 1487 1486 1486 1484 1484 1482 1481 1481 1480 1479 1479 1478 1477 1477 1476 1476 1476 1475 1474 1475 1471 1463 1460 1462 1463 1463 1463 1462 1462 1463 1463 1464 1465 1465 1466 1466 1465 1464 1464 1465 1465 1465 1463 1460 1458 1457 1455 1453 1450 1450 1448 1447 1449 1450 1449 1446 1441 1439 1441 1443 1444 1443 1447 1458 1456 1448 1445 1444 1444 1444 1445 1451 1452 1454 1457 1459 1465 1471 1473 1474 1476
1493 1492 1491 1490 1489 1488 1487 1486 1486 1484 1484 1483 1481 1481 1480 1479 1478 1477 1477 1476 1476 1476 1475 1475 1474 1474 1474 1466 1457 1458 1460 1461 1462 1461 1461 1462 1462 1463 1464 1464 1465 1465 1465 1464 1464 1464 1464 1464 1464 1463 1461 1459 1456 1453 1451 1450 1449 1448 1449 1449 1450 1453 1448 1438 1436 1438 1441 1443 1440 1446 1458 1455 1444 1441 1441 1442 1442 1445 1449 1451 1453 1455 1457 1464 1470 1472 1474 1476
1493 1491 1491 1490 1488 1488 1486 1485 1485 1483 1483 1482 1480 1480 1478 1478 1477 1476 1476 1475 1474 1474 1473 1473 1473 1473 1471 1462 1455 1456 1457 1458 1459 1459 1460 1461 1461 1462 1462 1463 1464 1463 1464 1464 1464 1464 1463 1463 1463 1462 1461 1459 1457 1456 1454 1453 1449 1448 1453 1454 1449 1451 1447 1436 1431 1433 1438 1440 1437 1444 1454 1450 1441 1436 1435 1438 1440 1444 1449 1449 1451 1453 1455 1461 1466 1469 1473 1475
1492 1491 1490 1489 1488 1487 1486 1484 1483 1482 1482 1480 1479 1478 1477 1476 1475 1474 1474 1473 1473 1473 1472 1473 1472 1472 1470 1460 1455 1455 1455 1455 1456 1457 1458 1459 1460 1460 1460 1462 1462 1462 1463 1463 1463 1463 1463 1462 1461 1461 1459 1458 1456 1456 1456 1455 1450 1446 1451 1455 1448 1445 1444 1438 1429 1424 1430 1435 1435 1440 1447 1446 1440 1432 1430 1433 1436 1440 1446 1448 1450 1451 1453 1457 1463 1468 1471 1475
1491 1490 1489 1488 1487 1486 1484 1483 1482 1481 1480 1479 1478 1477 1476 1475 1473 1472 1471 1471 1471 1471 1471 1471 1471 1473 1466 1456 1454 1453 1452 1452 1453 1455 1456 1457 1458 1458 1459 1460 1460 1461 1461 1462 1463 1462 1462 1461 1460 1459 1457 1455 1453 1453 1459 1462 1455 1447 1446 1449 1446 1440 1439 1436 1428 1419 1423 1432 1433 1436 1442 1443 1437 1430 1426 1424 1429 1438 1443 1447 1447 1448 1452 1455 1461 1467 1470 1473
1490 1489 1488 1487 1486 1485 1483 1482 1481 1480 1479 1478 1477 1476 1474 1473 1471 1470 1469 1469 1470 1470 1471 1469 1472 1473 1461 1453 1453 1450 1449 1450 1451 1453 1454 1455 1457 1456 1457 1458 1459 1460 1460 1460 1460 1459 1460 1458 1457 1457 1455 1454 1451 1450 1459 1460 1450 1444 1442 1444 1443 1438 1434 1431 1425 1416 1418 1429 1432 1434 1441 1441 1435 1431 1425 1418 1425 1436 1441 1444 1445 1445 1451 1455 1459 1464 1467 1469
1490 1488 1487 1486 1485 1484 1482 1481 1480 1479 1478 1477 1476 1474 1473 1471 1469 1467 1466 1467 1468 1468 1466 1464 1466 1465 1455 1450 1450 1449 1448 1449 1450 1451 1452 1453 1455 1455 1456 1457 1458 1458 1458 1458 1457 1456 1457 1456 1457 1457 1454 1452 1449 1447 1449 1447 1439 1435 1434 1435 1435 1435 1431 1425 1418 1410 1412 1426 1431 1432 1437 1439 1437 1432 1428 1426 1431 1436 1437 1441 1443 1443 1448 1453 1457 1461 1464 1467
1489 1488 1487 1485 1484 1483 1481 1480 1479 1478 1477 1476 1475 1474 1472 1469 1466 1465 1465 1466 1464 1462 1460 1458 1458 1455 1450 1448 1448 1447 1448 1449 1450 1450 1451 1452 1454 1454 1454 1456 1456 1455 1455 1454 1453 1453 1454 1456 1456 1454 1451 1447 1444 1443 1441 1438 1434 1432 1433 1431 1426 1428 1428 1420 1414 1409 1410 1422 1429 1429 1432 1434 1435 1432 1427 1429 1434 1436 1437 1440 1442 1442 1446 1450 1454 1458 1463 1465
1488 1487 1485 1484 1483 1482 1480 1479 1478 1477 1476 1475 1474 1474 1471 1469 1467 1465 1464 1462 1459 1457 1455 1454 1454 1452 1449 1447 1445 1444 1446 1447 1449 1449 1449 1451 1452 1452 1452 1453 1453 1453 1452 1450 1450 1450 1452 1455 1452 1447 1444 1441 1439 1439 1439 1438 1436 1435 1437 1434 1424 1422 1423 1415 1411 1409 1410 1421 1426 1427 1430 1431 1431 1430 1427 1427 1432 1435 1437 1440 1441 1441 1443 1447 1451 1456 1460 1463
1487 1486 1484 1484 1482 1481 1480 1478 1477 1476 1475 1474 1473 1472 1470 1470 1469 1468 1466 1460 1454 1453 1452 1450 1450 1448 1446 1445 1444 1444 1445 1444 1446 1447 1447 1449 1451 1449 1448 1449 1450 1448 1448 1448 1447 1450 1453 1452 1446 1441 1439 1438 1437 1435 1437 1438 1438 1439 1439 1436 1429 1421 1418 1414 1410 1407 1412 1424 1426 1425 1431 1433 1428 1427 1426 1425 1428 1432 1436 1439 1441 1441 1442 1445 1450 1453 1457 1461
1486 1484 1484 1482 1481 1480 1479 1477 1476 1474 1473 1472 1471 1471 1469 1469 1469 1469 1467 1460 1451 1447 1446 1444 1443 1442 1442 1442 1442 1443 1443 1441 1442 1443 1444 1447 1447 1446 1445 1446 1447 1445 1445 1445 1445 1449 1453 1447 1440 1437 1436 1436 1437 1436 1438 1439 1440 1442 1440 1439 1435 1424 1419 1421 1419 1414 1417 1427 1429 1427 1431 1432 1429 1425 1424 1424 1424 1429 1435 1439 1440 1440 1441 1445 1449 1452 1455 1458
1484 1483 1482 1481 1480 1479 1477 1476 1475 1473 1472 1471 1470 1469 1468 1469 1469 1468 1466 1460 1451 1441 1438 1437 1437 1436 1436 1437 1439 1440 1440 1440 1439 1438 1441 1444 1444 1444 1443 1442 1443 1443 1440 1440 1440 1442 1442 1435 1431 1434 1434 1434 1436 1439 1442 1444 1444 1442 1439 1439 1435 1427 1421 1421 1422 1421 1423 1429 1430 1433 1439 1436 1428 1427 1427 1424 1423 1428 1434 1436 1438 1439 1440 1445 1449 1452 1454 1458
1482 1482 1480 1479 1479 1477 1477 1476 1473 1473 1472 1470 1469 1468 1467 1469 1469 1469 1466 1461 1451 1436 1429 1431 1431 1430 1430 1432 1435 1435 1436 1438 1437 1435 1437 1440 1442 1441 1440 1439 1440 1440 1437 1436 1437 1437 1434 1428 1427 1430 1430 1432 1438 1441 1441 1444 1447 1443 1438 1436 1433 1430 1425 1420 1421 1425 1433 1439 1432 1436 1453 1446 1429 1428 1430 1424 1424 1431 1433 1434 1436 1437 1439 1444 1449 1451 1455 1459
1481 1480 1479 1478 1477 1476 1476 1474 1473 1473 1471 1470 1469 1468 1469 1469 1469 1469 1466 1462 1451 1432 1425 1427 1426 1425 1426 1428 1431 1434 1436 1435 1433 1433 1434 1437 1440 1438 1438 1437 1435 1435 1433 1431 1433 1433 1429 1426 1427 1428 1429 1434 1439 1441 1439 1440 1447 1445 1435 1431 1432 1431 1429 1426 1425 1428 1439 1445 1433 1433 1452 1451 1435 1430 1427 1423 1427 1431 1432 1433 1435 1436 1439 1445 1450 1453 1457 1460
1479 1478 1477 1477 1476 1475 1474 1473 1473 1472 1469 1470 1469 1469 1471 1469 1468 1468 1466 1467 1451 1426 1421 1425 1423 1423 1424 1425 1428 1433 1435 1431 1429 1431 1431 1434 1438 1436 1437 1434 1432 1433 1428 1428 1433 1431 1427 1427 1429 1430 1431 1436 1439 1439 1436 1435 1443 1443 1430 1426 1430 1430 1431 1430 1427 1428 1432 1436 1434 1430 1438 1447 1441 1427 1420 1422 1427 1430 1431 1434 1435 1436 1441 1447 1452 1455 1458 1463
1478 1476 1476 1475 1475 1474 1473 1472 1472 1469 1469 1470 1469 1470 1470 1467 1469 1467 1469 1474 1446 1416 1417 1423 1422 1424 1424 1425 1428 1429 1428 1424 1426 1429 1428 1433 1435 1435 1436 1431 1430 1430 1425 1429 1435 1429 1424 1428 1430 1431 1433 1436 1436 1434 1431 1431 1437 1435 1426 1423 1423 1424 1428 1427 1427 1430 1429 1436 1444 1434 1431 1446 1443 1424 1419 1423 1426 1430 1433 1434 1436 1439 1444 1449 1454 1456 1460 1467
1476 1475 1474 1474 1474 1473 1472 1471 1470 1468 1468 1468 1469 1470 1467 1468 1469 1464 1472 1473 1439 1414 1417 1420 1422 1425 1423 1424 1427 1426 1424 1421 1422 1424 1426 1431 1433 1432 1433 1430 1428 1427 1424 1426 1430 1425 1422 1424 1425 1428 1433 1433 1430 1428 1426 1428 1431 1428 1424 1423 1420 1421 1423 1425 1429 1430 1430 1444 1451 1437 1432 1448 1446 1427 1424 1428 1427 1430 1432 1433 1436 1439 1444 1450 1455 1459 1463 1469
1475 1474 1472 1472 1472 1472 1471 1469 1468 1467 1467 1467 1469 1468 1467 1469 1467 1468 1476 1464 1432 1416 1417 1418 1421 1421 1421 1423 1424 1424 1423 1419 1418 1420 1424 1428 1431 1431 1430 1429 1428 1426 1423 1423 1426 1424 1420 1421 1422 1423 1427 1427 1425 1423 1421 1423 1425 1423 1424 1425 1424 1423 1421 1424 1427 1427 1439 1453 1448 1435 1431 1443 1448 1433 1424 1427 1425 1426 1430 1433 1437 1440 1444 1450 1454 1458 1462 1467
1474 1472 1471 1470 1470 1470 1470 1468 1467 1467 1467 1467 1467 1466 1468 1467 1464 1470 1469 1446 1426 1417 1412 1416 1418 1415 1418 1421 1421 1422 1421 1418 1416 1420 1424 1426 1428 1430 1429 1428 1428 1429 1428 1426 1426 1424 1420 1424 1424 1422 1423 1423 1422 1422 1419 1417 1418 1422 1426 1427 1431 1431 1428 1431 1431 1433 1452 1458 1443 1430 1423 1434 1449 1437 1422 1422 1422 1423 1428 1433 1441 1445 1447 1450 1454 1457 1460 1464
1472 1471 1469 1468 1468 1468 1468 1467 1466 1467 1467 1467 1466 1466 1468 1466 1465 1465 1453 1435 1427 1415 1407 1412 1412 1410 1415 1417 1417 1418 1418 1417 1415 1417 1421 1423 1426 1427 1428 1427 1427 1436 1438 1431 1427 1426 1423 1422 1421 1422 1422 1420 1422 1424 1423 1421 1420 1423 1426 1430 1440 1444 1444 1449 1447 1445 1452 1448 1433 1424 1423 1435 1445 1433 1422 1423 1426 1428 1430 1432 1441 1447 1447 1450 1455 1458 1460 1461
1470 1469 1467 1466 1466 1465 1465 1465 1465 1466 1466 1466 1467 1465 1465 1468 1464 1454 1444 1436 1425 1409 1406 1410 1408 1408 1413 1415 1415 1414 1415 1416 1414 1416 1418 1420 1424 1424 1425 1423 1421 1430 1434 1429 1428 1429 1428 1423 1418 1422 1422 1419 1422 1425 1427 1426 1424 1425 1425 1430 1442 1449 1457 1462 1456 1450 1448 1439 1426 1419 1426 1441 1443 1433 1427 1427 1430 1433 1431 1432 1437 1442 1446 1451 1454 1457 1460 1459
1468 1466 1466 1464 1463 1463 1463 1463 1464 1465 1465 1466 1467 1464 1466 1468 1458 1444 1439 1434 1420 1409 1409 1410 1408 1410 1411 1413 1414 1411 1414 1415 1413 1415 1416 1417 1423 1423 1423 1421 1418 1422 1425 1427 1427 1426 1433 1432 1421 1419 1420 1419 1421 1421 1420 1419 1420 1423 1421 1424 1433 1440 1452 1459 1454 1451 1448 1440 1429 1423 1433 1446 1447 1440 1431 1429 1431 1433 1434 1436 1438 1442 1446 1451 1454 1456 1459 1460
1466 1465 1464 1462 1462 1462 1461 1462 1463 1464 1465 1466 1465 1463 1464 1463 1451 1441 1436 1427 1419 1414 1410 1408 1410 1414 1412 1411 1409 1409 1413 1413 1410 1413 1415 1416 1420 1420 1419 1419 1417 1417 1421 1430 1428 1422 1428 1427 1413 1412 1414 1414 1419 1417 1414 1416 1420 1420 1416 1421 1430 1429 1434 1444 1446 1444 1444 1446 1440 1432 1436 1441 1440 1437 1431 1431 1434 1434 1438 1442 1443 1447 1448 1450 1454 1455 1457 1460
1465 1463 1463 1462 1461 1461 1461 1462 1463 1464 1464 1464 1463 1460 1456 1451 1443 1437 1428 1420 1417 1414 1410 1410 1411 1415 1416 1411 1408 1410 1413 1412 1411 1414 1414 1413 1414 1414 1413 1414 1414 1414 1416 1423 1424 1422 1428 1422 1407 1408 1412 1410 1414 1415 1412 1418 1425 1424 1421 1422 1421 1416 1421 1439 1447 1438 1441 1455 1448 1436 1443 1445 1439 1438 1433 1434 1438 1438 1442 1445 1447 1451 1452 1452 1454 1456 1458 1461
1463 1463 1462 1462 1462 1461 1462 1463 1463 1464 1464 1463 1462 1457 1448 1442 1436 1431 1424 1419 1416 1410 1410 1415 1412 1413 1417 1414 1409 1408 1409 1411 1414 1418 1418 1415 1413 1411 1410 1408 1409 1411 1411 1415 1417 1418 1425 1424 1411 1409 1413 1409 1409 1412 1411 1411 1417 1425 1428 1421 1414 1415 1419 1433 1448 1447 1450 1458 1444 1434 1448 1453 1448 1445 1439 1436 1440 1444 1446 1448 1452 1455 1454 1456 1457 1459 1462 1463
1462 1462 1462 1462 1462 1462 1462 1463 1463 1464 1463 1461 1459 1454 1445 1439 1433 1428 1423 1420 1417 1412 1412 1416 1413 1409 1413 1415 1410 1405 1407 1412 1416 1419 1422 1423 1418 1414 1413 1410 1407 1407 1407 1411 1416 1415 1419 1428 1422 1412 1411 1408 1406 1413 1415 1411 1409 1415 1419 1417 1422 1437 1437 1434 1445 1453 1457 1460 1449 1435 1436 1444 1446 1443 1442 1443 1446 1450 1452 1453 1456 1456 1455 1457 1459 1462 1463 1462
1461 1461 1461 1460 1461 1461 1461 1462 1462 1462 1462 1459 1456 1451 1444 1438 1432 1428 1424 1421 1418 1415 1414 1416 1415 1410 1409 1410 1408 1405 1408 1415 1421 1422 1424 1428 1427 1421 1418 1417 1414 1411 1406 1407 1415 1416 1418 1433 1433 1415 1407 1407 1408 1415 1420 1417 1411 1410 1414 1415 1420 1434 1439 1440 1444 1444 1446 1455 1454 1440 1435 1447 1451 1439 1440 1449 1449 1452 1458 1459 1461 1461 1459 1459 1460 1461 1462 1462
1461 1461 1459 1459 1460 1460 1460 1460 1461 1461 1458 1455 1450 1445 1440 1435 1431 1427 1425 1422 1418 1415 1415 1417 1417 1413 1408 1406 1404 1404 1404 1409 1421 1426 1424 1426 1429 1425 1421 1420 1418 1415 1409 1406 1411 1415 1419 1432 1438 1423 1410 1412 1415 1415 1418 1418 1415 1415 1420 1421 1422 1425 1428 1437 1441 1434 1435 1446 1449 1446 1450 1459 1455 1441 1441 1449 1450 1452 1459 1463 1466 1468 1467 1465 1463 1462 1464 1466
1461 1459 1458 1459 1459 1458 1458 1459 1458 1456 1453 1449 1446 1441 1436 1433 1429 1425 1423 1422 1418 1416 1416 1418 1418 1414 1410 1407 1403 1402 1403 1406 1415 1422 1424 1427 1431 1429 1424 1422 1420 1419 1416 1411 1411 1417 1421 1428 1436 1432 1424 1424 1420 1412 1410 1413 1413 1415 1418 1419 1422 1423 1426 1438 1444 1433 1428 1436 1441 1450 1463 1463 1451 1444 1444 1447 1449 1451 1455 1460 1465 1470 1473 1471 1468 1467 1469 1472
1460 1458 1457 1458 1458 1457 1458 1457 1454 1452 1449 1446 1442 1438 1434 1431 1428 1424 1421 1418 1417 1416 1418 1420 1419 1415 1414 1412 1406 1404 1405 1407 1413 1420 1425 1431 1434 1430 1424 1422 1422 1420 1421 1419 1417 1419 1421 1425 1432 1433 1429 1426 1420 1413 1412 1412 1410 1410 1413 1413 1415 1418 1423 1438 1450 1443 1434 1434 1435 1444 1462 1463 1448 1444 1446 1447 1450 1452 1454 1458 1461 1467 1472 1473 1472 1472 1474 1476
1458 1457 1457 1457 1457 1457 1457 1454 1450 1448 1446 1443 1440 1438 1433 1429 1427 1424 1420 1419 1419 1420 1422 1422 1419 1416 1415 1414 1413 1411 1409 1410 1414 1419 1423 1427 1429 1425 1421 1422 1423 1419 1421 1426 1424 1421 1423 1426 1430 1435 1435 1428 1420 1417 1417 1413 1411 1412 1412 1412 1414 1416 1417 1423 1433 1439 1440 1441 1438 1446 1463 1464 1450 1446 1448 1448 1451 1454 1457 1459 1461 1464 1468 1470 1472 1473 1474 1476
1457 1456 1456 1456 1457 1456 1456 1455 1454 1449 1445 1444 1442 1439 1435 1430 1427 1423 1420 1422 1424 1425 1425 1424 1420 1416 1414 1414 1416 1414 1413 1415 1415 1416 1421 1423 1423 1424 1423 1423 1425 1423 1423 1426 1425 1426 1432 1432 1433 1442 1450 1447 1440 1436 1432 1428 1426 1425 1420 1415 1413 1413 1415 1419 1423 1430 1437 1437 1434 1446 1465 1463 1450 1448 1451 1451 1453 1457 1459 1461 1463 1464 1466 1469 1471 1472 1473 1475
1457 1454 1454 1454 1456 1456 1455 1457 1458 1455 1451 1447 1444 1441 1438 1433 1429 1426 1424 1425 1427 1427 1426 1425 1421 1416 1412 1414 1417 1412 1411 1415 1415 1415 1421 1423 1420 1422 1423 1423 1426 1427 1425 1423 1422 1427 1435 1435 1436 1445 1454 1459 1460 1455 1450 1447 1443 1437 1431 1423 1416 1412 1415 1426 1436 1441 1444 1439 1434 1446 1462 1459 1449 1450 1457 1459 1461 1464 1464 1464 1466 1467 1468 1470 1471 1473 1474 1475
1456 1454 1454 1454 1455 1456 1456 1456 1458 1458 1456 1451 1445 1442 1440 1436 1430 1429 1428 1427 1429 1429 1427 1425 1423 1419 1415 1415 1416 1413 1411 1413 1414 1415 1422 1424 1422 1423 1423 1422 1425 1427 1426 1427 1425 1425 1431 1434 1437 1443 1447 1453 1457 1451 1448 1450 1448 1445 1442 1433 1426 1420 1414 1422 1440 1448 1446 1447 1452 1454 1454 1455 1455 1457 1465 1470 1470 1471 1472 1470 1470 1471 1472 1473 1473 1474 1475 1477
1456 1456 1458 1458 1457 1457 1457 1456 1455 1456 1455 1451 1445 1442 1443 1440 1433 1430 1431 1431 1430 1430 1429 1426 1424 1424 1423 1421 1421 1421 1417 1415 1413 1414 1419 1425 1426 1426 1425 1422 1424 1426 1426 1427 1427 1425 1431 1437 1437 1440 1441 1441 1443 1442 1444 1448 1448 1449 1447 1440 1434 1432 1426 1426 1435 1438 1437 1448 1463 1460 1451 1457 1464 1464 1467 1472 1472 1474 1474 1473 1474 1475 1474 1475 1475 1476 1477 1478
1457 1459 1462 1462 1461 1461 1460 1459 1457 1454 1452 1451 1447 1444 1444 1444 1438 1433 1434 1434 1431 1431 1431 1430 1427 1425 1424 1423 1424 1426 1424 1421 1418 1415 1417 1424 1427 1426 1425 1421 1421 1426 1426 1425 1425 1426 1430 1436 1436 1438 1440 1438 1437 1439 1441 1446 1449 1450 1449 1446 1442 1441 1442 1442 1441 1435 1430 1440 1455 1457 1455 1463 1469 1467 1468 1470 1471 1474 1475 1475 1477 1479 1480 1478 1477 1478 1479 1480
1460 1462 1463 1463 1463 1463 1462 1461 1458 1456 1454 1453 1450 1445 1442 1445 1444 1438 1434 1435 1435 1434 1434 1435 1432 1427 1424 1421 1421 1425 1429 1430 1430 1426 1424 1428 1429 1429 1435 1434 1427 1425 1425 1424 1425 1427 1432 1438 1438 1437 1439 1439 1440 1442 1442 1445 1450 1450 1451 1451 1448 1448 1449 1452 1454 1447 1437 1438 1448 1455 1460 1467 1470 1469 1470 1470 1470 1472 1474 1477 1480 1482 1484 1482 1479 1480 1481 1482
1464 1465 1464 1463 1462 1463 1463 1461 1459 1457 1455 1455 1454 1448 1443 1444 1444 1439 1435 1438 1441 1439 1437 1437 1434 1429 1428 1427 1426 1430 1433 1432 1434 1435 1431 1430 1428 1430 1440 1444 1434 1426 1424 1426 1429 1431 1436 1443 1441 1437 1441 1442 1441 1444 1446 1448 1451 1452 1454 1454 1453 1454 1454 1455 1462 1462 1454 1449 1452 1457 1465 1472 1472 1470 1471 1473 1473 1474 1476 1480 1482 1485 1486 1485 1484 1484 1484 1485
1467 1467 1466 1463 1461 1462 1463 1462 1461 1460 1459 1457 1456 1453 1449 1447 1445 1442 1439 1439 1441 1440 1439 1438 1437 1435 1435 1435 1434 1436 1436 1432 1432 1434 1431 1429 1429 1429 1433 1436 1434 1432 1430 1432 1437 1436 1437 1443 1442 1441 1446 1446 1441 1444 1448 1451 1455 1456 1456 1457 1458 1460 1460 1459 1463 1467 1465 1461 1459 1462 1469 1474 1474 1473 1476 1478 1478 1478 1480 1483 1485 1487 1487 1488 1489 1488 1487 1488
1468 1467 1466 1464 1461 1461 1463 1463 1463 1465 1464 1462 1458 1455 1454 1452 1448 1446 1445 1444 1443 1443 1442 1440 1439 1440 1441 1440 1440 1439 1438 1436 1434 1433 1432 1430 1429 1428 1428 1428 1431 1434 1434 1438 1445 1442 1439 1443 1443 1443 1448 1447 1440 1443 1449 1454 1461 1462 1458 1456 1458 1459 1461 1463 1466 1467 1467 1467 1466 1466 1469 1473 1475 1477 1481 1483 1484 1485 1486 1487 1489 1490 1489 1491 1492 1492 1491 1491